Tracking 31027 objects as of 19-Jul-2025
HD Live streaming from Space Station
objects crossing your sky now

COSMOS 2251 DEB

Track COSMOS 2251 DEB now!
10-day predictions


NORAD ID: 34122
Int'l Code: 1993-036KT
Perigee: 631.0 km
Apogee: 750.9 km
Inclination: 74.0 °
Period: 98.4 minutes
Semi major axis: 7061 km
RCS: 0.0293 m2 (small)
Launch date: June 16, 1993
Source: Commonwealth of Independent States (former USSR) (CIS)
Launch site: PLESETSK MISSILE AND SPACE COMPLEX (PKMTR)

Note: This is SATELLITE DEBRIS
Your satellite tracking list
EUTE 33A (EB 3)
Track 1 satellite(s)




NASA's NSSDC Master Catalog

Two Line Element Set (TLE):
1 34122U 93036KT  25199.55354916  .00003209  00000-0  60170-3 0  9998
2 34122  74.0381  41.2402 0084897 336.2936  53.6753 14.62890433865310
Source of the keplerian elements: AFSPC